Wind_Speed
5 5 4 4 4 4 5 5 5 4 4 4 4 4 3 2 2 1 1 1 2 3 3 4 4 5 6 6 6 7 8 8 9 10 9 9 10 10 11 11 12 12 12
5 5 5 5 5 5 5 5 5 4 3 3 3 3 3 2 2 1 1 2 2 3 3 3 4 5 6 7 7 7 8 8 9 10 9 10 10 11 11 11 11 11 11
6 5 5 6 6 5 5 4 3 3 2 2 3 2 2 2 3 2 2 2 2 3 3 3 4 5 7 7 7 8 9 9 10 10 11 11 11 11 10 10 11 11 12
7 6 6 6 6 5 4 4 3 2 1 2 2 2 1 2 2 1 2 2 3 3 4 5 6 6 7 8 8 9 9 10 11 11 11 11 11 11 11 12 12 13 13
6 6 6 6 5 5 4 3 2 1 0 1 0 1 1 2 2 2 2 2 3 3 4 6 6 7 8 8 8 9 10 10 11 10 11 11 11 12 12 13 14 15 15
7 7 6 5 5 4 4 3 2 2 2 1 0 1 2 2 2 2 3 4 5 5 5 6 6 7 8 8 9 9 10 10 11 11 11 12 13 13 14 15 15 16 16
6 6 6 5 4 4 3 3 3 3 2 2 1 1 2 2 2 3 4 5 6 6 6 6 7 8 8 9 9 9 10 11 11 12 12 13 14 14 15 15 16 16 17
6 5 5 4 4 3 2 2 1 1 2 2 1 2 2 3 3 3 4 5 6 6 6 7 8 9 9 9 9 9 10 11 11 12 12 13 13 14 15 15 16 17 17
5 5 5 4 4 3 2 2 2 3 3 3 3 4 4 4 4 4 5 5 6 6 7 8 8 9 9 10 10 10 11 11 11 12 12 12 13 14 15 16 16 16 17
5 5 5 5 4 4 3 3 3 4 4 4 4 4 5 5 4 5 6 6 7 7 7 8 9 9 10 11 11 11 12 12 13 13 14 14 14 14 15 15 16 17 18
5 5 5 5 5 5 5 5 5 5 5 5 5 5 6 6 6 7 7 8 8 8 8 9 10 10 11 12 12 13 13 14 14 15 15 15 15 15 15 15 15 16 17
6 6 6 6 6 6 6 6 7 7 7 6 7 7 7 7 7 8 9 9 9 9 10 11 12 12 13 13 13 14 14 14 15 16 15 15 15 16 17 16 16 17 17
6 7 7 7 8 8 7 8 8 9 8 8 8 8 8 9 9 10 10 10 10 10 11 12 13 14 14 15 15 15 15 15 16 16 16 16 17 17 17 18 18 18 18
7 7 8 9 9 9 9 10 10 10 10 9 9 10 10 11 11 12 11 11 11 12 13 13 14 15 15 16 17 17 17 16 17 17 17 17 18 18 19 19 19 19 19
9 9 9 10 11 10 11 11 11 11 10 10 10 10 11 11 11 12 12 13 13 13 14 15 15 15 16 17 18 18 18 18 18 18 18 18 18 19 19 20 20 19 19
10 10 11 11 12 12 12 13 13 12 11 11 12 12 12 12 12 12 12 13 14 15 15 16 16 16 17 17 18 19 19 19 19 19 19 19 19 19 20 20 20 20 20
12 12 13 13 14 14 14 14 13 13 12 12 12 12 12 12 12 13 13 14 15 16 16 16 17 17 17 18 20 21 21 21 20 20 20 20 20 21 21 21 20 20 20
14 15 15 15 15 15 15 15 14 14 13 14 13 13 14 14 15 15 15 16 16 17 17 17 17 17 18 19 20 21 21 21 21 21 21 22 22 22 22 21 21 22 22
16 16 16 16 16 16 16 16 15 15 15 15 15 15 16 16 17 17 17 17 18 19 19 19 19 19 20 21 22 23 23 23 22 23 23 23 24 24 24 23 23 23 24
17 17 17 17 17 17 17 17 17 17 17 17 17 18 18 18 19 19 19 19 20 21 21 21 21 22 22 22 22 23 23 24 24 24 24 25 25 25 25 26 25 25 25
18 18 19 19 18 18 18 18 18 19 19 19 20 20 20 20 21 21 21 21 22 22 23 23 24 24 24 24 23 24 25 25 25 25 26 26 27 27 27 27 27 27 27
20 20 20 20 20 19 20 20 20 21 21 21 21 22 22 21 21 22 23 24 23 24 24 25 25 25 25 25 25 25 26 26 26 26 27 27 27 28 28 28 28 28 27
21 21 21 21 21 22 22 22 23 23 23 23 23 24 24 24 24 24 24 25 25 25 25 26 26 26 26 26 26 27 27 29 29 28 28 28 29 29 29 29 29 28 28
22 22 22 23 23 24 24 24 24 24 24 24 25 25 25 26 26 26 26 26 26 26 26 27 27 27 27 28 28 29 29 29 29 29 29 30 30 30 30 30 29 29 29
24 24 24 24 24 25 25 25 25 25 25 26 26 26 26 27 27 27 27 27 27 27 28 28 28 29 29 30 30 31 30 30 30 30 30 31 31 31 31 31 31 31 30
27 27 26 26 26 26 27 27 26 26 26 26 27 27 28 28 29 28 28 28 28 29 29 30 30 30 31 31 31 31 31 31 31 31 31 32 33 33 33 32 32 32 31
Wind_Direction
107 110 122 121 121 116 113 117 128 153 169 172 180 190 187 189 173 169 188 221 227 240 254 267 280 285 287 282 279 272 272 272 274 279 280 279 279 276 273 271 271 274 275
102 105 113 114 115 109 118 114 106 126 134 156 182 192 192 207 207 193 243 251 256 262 286 284 284 291 287 286 274 274 279 282 284 283 280 281 279 276 278 276 275 276 275
96 100 109 108 110 106 101 110 110 118 124 153 162 170 195 217 217 228 252 268 272 280 288 295 297 300 297 296 288 289 287 283 284 282 279 277 277 276 276 276 276 277 276
90 91 102 97 92 91 94 106 114 105 105 163 164 176 204 227 245 257 267 278 289 293 289 292 300 301 301 298 293 289 288 288 287 288 284 286 287 283 281 277 276 275 276
92 89 91 87 84 81 84 95 82 66 83 154 169 213 256 241 258 275 287 291 298 304 298 296 296 297 305 302 300 293 291 292 293 294 292 293 293 290 285 282 280 275 276
84 85 83 85 82 76 70 72 59 36 19 28 331 291 301 294 292 285 288 289 296 302 301 299 296 299 303 303 301 299 296 294 294 293 294 294 290 289 286 282 281 276 276
78 77 73 74 72 64 60 56 46 35 30 17 335 329 320 307 307 315 309 306 309 307 308 309 307 308 307 307 304 301 301 298 295 295 295 295 291 289 286 285 283 280 278
66 63 57 54 56 53 50 37 21 11 5 346 332 336 330 329 326 322 316 314 316 316 313 311 309 309 308 310 309 308 308 305 302 300 298 299 299 296 294 291 288 284 281
54 47 38 32 34 32 18 359 339 337 336 320 313 320 318 313 315 312 307 305 310 316 318 317 318 318 313 310 309 308 310 309 306 307 306 304 305 304 300 294 293 290 286
36 32 22 12 7 3 352 337 329 330 326 321 320 320 314 312 306 300 302 308 316 318 318 318 318 316 313 313 311 308 308 307 306 306 305 304 304 305 303 299 295 293 291
16 10 5 1 355 349 339 327 311 311 313 312 308 304 303 306 304 298 301 309 313 319 320 317 316 315 313 313 314 312 308 304 304 306 304 301 301 303 305 302 300 298 295
4 358 352 347 347 342 336 329 323 315 308 302 299 299 300 301 302 298 301 305 310 316 319 319 316 315 315 314 314 313 309 307 305 306 305 303 300 302 304 302 301 299 297
350 351 344 335 333 335 331 326 322 321 310 299 296 296 296 296 298 297 297 299 304 308 313 314 312 313 313 313 313 312 310 310 308 307 305 304 302 303 304 302 300 298 297
327 331 331 329 328 329 329 328 321 314 308 298 295 294 294 296 296 295 293 296 302 306 308 309 308 308 309 309 309 309 309 309 307 307 305 303 303 303 302 302 302 301 298
317 317 318 321 317 319 321 318 316 310 303 297 297 294 294 295 297 299 294 294 300 303 306 307 306 304 306 307 306 306 307 308 306 305 305 304 304 304 304 303 304 303 299
312 313 315 315 314 314 314 312 311 311 304 300 299 296 296 291 295 303 302 299 300 301 302 304 303 303 303 306 308 308 307 307 304 304 303 303 305 305 304 304 304 303 300
306 306 308 309 309 307 307 306 306 306 302 301 297 296 296 294 296 301 303 301 300 300 300 301 300 301 302 304 306 306 305 303 302 302 302 302 303 303 305 303 302 301 300
303 303 304 305 305 303 303 304 303 301 298 297 294 293 294 295 294 295 297 300 302 303 303 301 301 302 304 305 306 307 305 302 301 299 299 302 302 302 302 302 301 301 301
300 300 301 302 302 299 299 301 299 296 293 292 290 290 289 290 291 292 293 294 297 299 300 302 302 302 303 304 304 304 303 301 300 299 299 300 302 300 300 300 299 299 300
297 298 300 301 298 296 298 298 295 293 291 289 288 288 288 288 289 292 292 292 294 296 297 298 301 299 300 302 303 303 302 301 301 301 300 300 301 300 299 298 299 298 297
295 296 298 299 296 294 296 295 292 291 290 289 289 290 290 290 291 291 293 294 294 295 297 298 300 299 299 299 301 300 300 300 300 300 301 301 300 300 300 298 298 297 296
293 293 295 296 295 294 293 292 292 289 289 288 288 289 289 289 290 291 294 295 294 294 295 297 299 300 300 300 299 299 299 299 300 301 300 299 300 302 302 300 299 300 298
291 291 292 292 292 292 291 290 290 289 288 287 287 286 287 288 289 290 291 294 294 294 293 294 296 297 298 298 298 298 298 298 300 300 299 299 299 300 302 303 302 302 299
290 289 290 291 290 290 289 289 289 288 289 288 287 287 288 289 289 290 290 292 292 291 292 293 295 296 295 295 296 296 297 298 300 299 299 299 300 300 301 301 300 301 299
291 290 290 291 290 289 288 288 288 289 290 289 288 288 289 290 291 291 292 294 293 292 292 293 293 293 294 294 295 295 295 296 297 298 298 298 299 300 299 298 297 298 298
291 291 290 290 290 290 290 289 289 288 289 288 287 288 289 290 291 291 292 293 293 293 293 293 292 292 294 295 294 294 295 295 295 296 297 298 298 298 297 296 296 297 296
Height
5887 5887 5887 5887 5888 5888 5888 5888 5888 5889 5889 5890 5890 5890 5891 5891 5891 5890 5891 5891 5891 5891 5891 5891 5890 5890 5889 5889 5889 5888 5888 5887 5887 5886 5886 5885 5885 5885 5884 5884 5883 5882 5882
5889 5888 5888 5888 5889 5889 5889 5889 5889 5889 5889 5890 5890 5890 5890 5890 5890 5890 5890 5890 5890 5890 5890 5890 5889 5889 5888 5887 5887 5886 5886 5886 5885 5885 5884 5884 5883 5883 5882 5881 5881 5881 5881
5889 5889 5889 5890 5889 5890 5890 5890 5890 5890 5890 5890 5890 5890 5890 5890 5890 5890 5890 5890 5890 5890 5890 5889 5888 5888 5887 5886 5886 5885 5884 5884 5883 5883 5882 5881 5881 5880 5880 5879 5879 5878 5878
5891 5891 5890 5890 5890 5890 5891 5891 5891 5891 5890 5890 5890 5890 5890 5890 5890 5890 5890 5890 5890 5889 5889 5888 5888 5887 5886 5885 5884 5884 5883 5882 5881 5880 5880 5879 5878 5878 5877 5876 5876 5875 5875
5892 5892 5892 5892 5892 5891 5892 5891 5891 5891 5891 5890 5890 5890 5890 5890 5890 5889 5889 5889 5889 5888 5888 5887 5887 5886 5885 5884 5883 5882 5881 5880 5879 5878 5877 5877 5876 5875 5874 5874 5873 5872 5872
5894 5894 5893 5893 5893 5893 5893 5892 5892 5891 5891 5890 5890 5890 5890 5890 5889 5889 5889 5888 5888 5887 5887 5886 5885 5884 5883 5882 5881 5880 5879 5878 5877 5876 5875 5874 5873 5872 5871 5870 5870 5869 5868
5895 5895 5895 5894 5894 5894 5893 5893 5893 5892 5891 5890 5890 5890 5889 5889 5889 5888 5888 5887 5887 5886 5885 5884 5884 5882 5881 5880 5879 5878 5877 5876 5875 5873 5872 5871 5870 5869 5868 5867 5866 5865 5864
5897 5896 5896 5895 5895 5894 5894 5893 5893 5892 5891 5891 5890 5890 5889 5889 5888 5888 5887 5886 5886 5885 5884 5883 5882 5881 5880 5878 5877 5876 5875 5873 5872 5871 5870 5868 5867 5866 5864 5863 5862 5861 5860
5898 5897 5897 5896 5895 5895 5894 5893 5893 5892 5892 5891 5890 5890 5889 5889 5888 5887 5886 5885 5885 5884 5883 5882 5880 5879 5878 5877 5875 5874 5873 5871 5870 5868 5867 5865 5864 5862 5861 5859 5858 5857 5856
5899 5898 5897 5896 5895 5894 5894 5893 5892 5892 5891 5890 5890 5889 5888 5887 5887 5886 5885 5884 5883 5882 5881 5880 5879 5877 5876 5875 5873 5872 5870 5869 5867 5865 5864 5862 5860 5859 5857 5856 5854 5853 5851
5899 5898 5897 5896 5895 5894 5893 5892 5891 5890 5890 5889 5888 5887 5887 5886 5885 5884 5884 5883 5882 5880 5879 5878 5877 5875 5874 5872 5871 5869 5868 5866 5864 5862 5860 5859 5857 5855 5854 5852 5850 5849 5847
5899 5898 5896 5895 5894 5893 5892 5891 5890 5889 5888 5887 5886 5886 5885 5884 5883 5882 5881 5880 5879 5878 5877 5875 5874 5873 5871 5869 5868 5866 5865 5863 5861 5859 5857 5855 5853 5852 5850 5848 5846 5844 5843
5898 5897 5895 5894 5893 5892 5890 5889 5888 5887 5886 5885 5884 5883 5883 5882 5881 5880 5879 5878 5876 5876 5874 5873 5871 5869 5868 5866 5865 5863 5861 5859 5857 5855 5853 5851 5849 5847 5845 5843 5841 5839 5837
5897 5896 5894 5893 5891 5890 5888 5887 5886 5884 5883 5882 5881 5881 5880 5879 5878 5877 5876 5875 5874 5873 5872 5870 5868 5866 5864 5863 5861 5859 5858 5856 5854 5852 5849 5847 5845 5843 5841 5839 5836 5834 5832
5895 5894 5892 5891 5889 5887 5886 5884 5883 5881 5880 5879 5878 5877 5877 5876 5875 5874 5873 5872 5871 5870 5869 5867 5865 5863 5861 5859 5857 5855 5853 5851 5850 5848 5845 5843 5841 5838 5836 5834 5831 5829 5827
5893 5892 5890 5889 5887 5885 5884 5882 5880 5878 5877 5876 5876 5875 5874 5873 5873 5871 5870 5869 5867 5866 5865 5863 5861 5859 5857 5855 5853 5851 5849 5847 5845 5843 5841 5839 5836 5834 5831 5829 5826 5824 5822
5891 5889 5888 5886 5884 5882 5881 5879 5877 5876 5875 5874 5873 5872 5871 5870 5869 5868 5867 5865 5864 5862 5861 5859 5857 5855 5853 5851 5849 5847 5844 5842 5840 5838 5836 5834 5831 5829 5826 5824 5821 5819 5817
5888 5886 5884 5883 5881 5879 5878 5876 5874 5873 5872 5871 5870 5869 5868 5867 5866 5865 5863 5862 5860 5858 5857 5855 5853 5851 5849 5847 5844 5842 5839 5837 5835 5833 5831 5829 5826 5824 5821 5819 5816 5814 5811
5885 5883 5881 5879 5877 5876 5874 5873 5871 5870 5868 5867 5866 5865 5864 5863 5862 5860 5859 5857 5856 5854 5852 5850 5848 5846 5844 5841 5839 5836 5833 5831 5829 5827 5825 5823 5820 5818 5815 5813 5811 5808 5806
5881 5880 5878 5875 5873 5872 5870 5869 5867 5866 5864 5863 5862 5861 5860 5858 5857 5856 5854 5852 5851 5849 5847 5845 5843 5841 5839 5836 5833 5831 5828 5825 5823 5821 5819 5817 5814 5812 5809 5807 5804 5802 5799
5877 5875 5873 5871 5869 5867 5866 5864 5863 5861 5860 5859 5858 5856 5855 5853 5852 5850 5849 5847 5845 5843 5841 5839 5837 5835 5832 5830 5827 5825 5822 5820 5817 5815 5812 5810 5808 5805 5802 5800 5797 5795 5792
5873 5871 5869 5867 5865 5863 5861 5860 5858 5856 5855 5854 5852 5851 5849 5847 5846 5844 5842 5841 5839 5837 5835 5833 5830 5828 5826 5823 5821 5818 5816 5814 5811 5809 5806 5803 5801 5798 5795 5793 5790 5787 5785
5867 5865 5863 5861 5859 5858 5856 5854 5853 5851 5849 5848 5846 5845 5843 5841 5839 5837 5836 5834 5832 5830 5828 5826 5824 5821 5819 5817 5814 5812 5809 5806 5804 5801 5799 5796 5794 5791 5788 5785 5783 5780 5777
5862 5860 5858 5855 5854 5852 5850 5848 5846 5844 5843 5841 5839 5838 5836 5834 5832 5830 5828 5826 5825 5823 5821 5819 5816 5814 5812 5809 5806 5804 5801 5799 5796 5794 5791 5789 5786 5783 5780 5778 5775 5772 5770
5855 5853 5851 5849 5847 5845 5843 5841 5839 5838 5836 5834 5832 5831 5829 5827 5825 5823 5821 5819 5817 5815 5813 5811 5809 5806 5803 5801 5798 5796 5793 5791 5789 5786 5783 5781 5778 5775 5773 5770 5767 5764 5762
5848 5846 5844 5842 5840 5838 5836 5834 5832 5831 5829 5827 5825 5823 5821 5820 5817 5815 5813 5811 5809 5807 5805 5802 5800 5798 5795 5793 5790 5787 5785 5783 5780 5778 5775 5772 5770 5767 5764 5762 5759 5756 5753